Location: Novokuznetsk
(53.7500°N, 87.1000°E)
Time: 00:55:30
(UTC+06:00)

ISS - Visible Passes

Search period start: 25 September 2021 00:00
Search period end: 05 October 2021 00:00
Orbit: 419 x 423 km, 51.6° (Epoch: 24 September)

Date Brightness Start Highest point End Pass type
(mag) Time Alt. Az. Time Alt. Az. Time Alt. Az.
25 Sep -3.6 19:36:51 10° W 19:40:11 61° S 19:41:23 35° ESE visible
25 Sep -1.0 21:13:38 10° W 21:14:23 15° W 21:14:23 15° W visible
26 Sep -3.5 18:49:58 10° WSW 18:53:18 60° S 18:56:13 13° E visible
26 Sep -2.6 20:26:42 10° W 20:29:12 38° SW 20:29:12 38° SW visible
27 Sep -3.4 19:39:47 10° W 19:43:06 53° S 19:44:01 38° SE visible
27 Sep -0.6 21:16:48 10° W 21:17:00 11° W 21:17:00 11° W visible
28 Sep -3.5 18:52:54 10° W 18:56:13 59° S 18:58:50 15° ESE visible
28 Sep -1.9 20:29:46 10° W 20:31:50 25° SW 20:31:50 25° SW visible
29 Sep -2.8 19:42:46 10° W 19:45:56 37° SSW 19:46:40 32° S visible
30 Sep -3.0 18:55:50 10° W 18:59:05 45° SSW 19:01:33 16° SE visible
30 Sep -1.2 20:33:10 10° WSW 20:34:33 15° SW 20:34:33 15° SW visible
01 Oct -1.9 19:45:56 10° W 19:48:37 22° SSW 19:49:28 20° S visible
02 Oct -2.2 18:58:52 10° W 19:01:49 28° SSW 19:04:26 12° SSE visible
03 Oct -2.4 18:11:52 10° W 18:14:59 36° SSW 18:18:07 10° SE visible
03 Oct -1.0 19:49:57 10° WSW 19:51:08 11° SW 19:52:19 10° SSW visible
04 Oct -1.2 19:02:16 10° WSW 19:04:25 16° SW 19:06:34 10° S visible
